Tracking 35237 objects as of 6-Sep-2026
HD Live streaming from Space Station
objects crossing your sky now

COSMOS 1960 DEB


COSMOS 1960 DEB is no longer on orbit


NORAD ID: 20385
Int'l Code: 1988-065AA
Launch date: July 28, 1988
Source: Commonwealth of Independent States (former USSR) (CIS)
Launch site: PLESETSK MISSILE AND SPACE COMPLEX (PKMTR)
Decay date: 1990-01-13

Note: This is SATELLITE DEBRIS
Your satellite tracking list
Your tracking list is empty




NASA's NSSDC Master Catalog

Two Line Element Set (TLE):
1 20385U 88065 AA 90013.04639922  .15084314 +33524-4 +31483-2 0  9991
2 20385 065.7913 184.4312 0011898 331.0658 029.3806 16.30411913082071
Source of the keplerian elements: AFSPC